EST,Max TemperatureF,Mean TemperatureF,Min TemperatureF,Max Dew PointF,MeanDew PointF,Min DewpointF,Max Humidity, Mean Humidity, Min Humidity, Max Sea Level PressureIn, Mean Sea Level PressureIn, Min Sea Level PressureIn, Max VisibilityMiles, Mean VisibilityMiles, Min VisibilityMiles, Max Wind SpeedMPH, Mean Wind SpeedMPH, Max Gust SpeedMPH,PrecipitationIn, CloudCover, Events, WindDirDegrees
2013-11-1,77,66,55,61,57,47,93,65,36,29.77,29.67,29.60,10,9,2,21,9,29,0.09,5,Rain,203
2013-11-2,69,59,49,57,45,31,100,64,28,29.91,29.72,29.65,10,7,0,14,5,21,0.00,2,Fog,274
2013-11-3,59,47,34,34,29,23,59,42,25,30.41,30.16,29.92,10,10,10,16,5,23,0.00,0,,329
2013-11-4,47,40,33,27,23,20,75,56,37,30.62,30.57,30.43,10,10,10,15,6,20,0.00,0,,46
2013-11-5,54,42,30,42,34,27,92,69,45,30.62,30.54,30.47,10,10,10,4,1,,0.00,5,,22
2013-11-6,67,58,48,49,47,43,86,69,52,30.46,30.29,30.08,10,10,10,17,5,22,0.00,4,,191
2013-11-7,64,54,43,55,42,23,89,62,34,30.11,29.98,29.90,10,10,7,16,6,24,0.01,3,Rain,252
2013-11-8,53,42,30,26,22,19,66,47,28,30.33,30.22,30.12,10,10,10,13,5,23,0.00,1,,279
2013-11-9,56,41,26,27,25,23,92,61,30,30.37,30.23,30.07,10,10,10,20,8,27,0.00,0,,193
2013-11-10,68,53,38,33,26,19,59,38,16,30.26,30.09,29.97,10,10,10,18,8,25,0.00,0,,268
2013-11-11,60,47,34,27,25,21,64,44,23,30.32,30.20,30.03,10,10,10,18,8,22,0.00,0,,206
2013-11-12,54,43,32,31,19,10,57,46,35,30.43,30.22,29.96,10,10,10,21,9,33,0.00,3,,340
2013-11-13,45,36,27,15,13,10,53,40,27,30.52,30.45,30.40,10,10,10,14,5,24,0.00,1,,324
2013-11-14,61,43,25,17,14,8,55,35,14,30.39,30.30,30.22,10,10,10,14,6,17,0.00,0,,198
2013-11-15,61,46,30,46,25,18,93,56,19,30.28,30.22,30.18,10,9,3,14,6,16,0.18,2,Rain,187
2013-11-16,55,48,40,51,45,40,100,89,77,30.31,30.26,30.23,10,3,0,8,1,9,0.12,8,Fog-Rain,294
2013-11-17,60,56,51,58,55,50,100,97,93,30.22,30.03,29.78,9,3,0,20,7,24,0.03,8,Fog-Rain,195
2013-11-18,67,58,49,60,38,20,90,55,19,29.96,29.81,29.72,10,9,2,20,8,27,0.06,3,Rain,272
2013-11-19,50,42,33,25,23,22,64,49,34,30.37,30.18,29.97,10,10,10,14,6,22,0.00,0,,343
2013-11-20,46,38,30,25,23,20,78,58,37,30.54,30.48,30.39,10,10,10,15,5,19,0.00,1,,34
2013-11-21,48,41,33,39,33,26,82,71,60,30.56,30.49,30.40,10,10,10,6,1,6,0.00,8,,80
2013-11-22,66,56,45,54,45,38,83,71,58,30.38,30.19,30.01,10,10,10,13,6,16,T,7,,201
2013-11-23,62,48,33,47,25,11,69,45,20,30.21,30.10,30.02,10,10,10,21,9,29,0.00,1,,330
2013-11-24,33,27,20,14,3,-1,51,39,27,30.54,30.43,30.23,10,10,10,20,7,29,0.00,1,,343
2013-11-25,36,26,16,11,8,3,73,50,27,30.57,30.47,30.35,10,10,10,15,6,19,0.00,2,,188
2013-11-26,38,36,33,37,29,10,100,68,35,30.33,30.01,29.59,10,4,1,13,5,15,2.03,8,Rain,69
2013-11-27,44,36,28,39,31,10,100,72,43,30.10,29.65,29.52,10,6,1,20,9,32,0.35,8,Rain-Snow,307
2013-11-28,40,31,22,19,13,9,75,55,34,30.46,30.34,30.13,10,10,10,10,4,17,0.00,1,,187
2013-11-29,45,33,20,22,18,16,84,59,33,30.71,30.58,30.44,10,10,10,9,2,12,0.00,0,,51
2013-11-30,39,30,20,20,19,17,84,66,48,30.71,30.58,30.38,10,10,10,8,1,10,0.00,0,,225